Location: C�mpuri de-Sus
(45.9500°N, 22.5500°E)
Time: 18:16:29
(UTC+00:00)

Cosmos 839 Rocket - Visible Passes

Search period start: 26 May 2024 00:00
Search period end: 05 June 2024 00:00
Orbit: 963 x 2089 km, 65.9° (Epoch: 25 May)

Date Brightness Start Highest point End Pass type
(mag) Time Alt. Az. Time Alt. Az. Time Alt. Az.
26 May 4.3 01:16:05 10° NW 01:22:52 52° WSW 01:28:48 10° S visible
26 May 6.9 20:31:08 10° NW 20:36:37 18° N 20:41:25 10° NE visible
26 May 6.1 22:33:29 10° NNW 22:39:59 28° NNE 22:45:33 10° E visible
27 May 4.0 00:33:52 10° NW 00:41:02 79° WSW 00:47:12 10° SSE visible
27 May 6.9 19:47:46 10° NW 19:53:38 19° N 19:58:46 10° NNE visible
27 May 6.5 21:51:18 10° NNW 21:57:18 23° NNE 22:02:30 10° ENE visible
27 May 4.4 23:51:46 10° NNW 23:59:02 71° NE 00:05:15 10° SE visible
28 May 5.3 01:53:19 10° WNW 01:58:05 21° WSW 02:02:31 10° SSW visible
28 May 6.9 19:04:07 10° WNW 19:10:42 21° NNW 19:16:22 10° NNE visible
28 May 6.6 21:08:55 10° NNW 21:14:29 20° NNE 21:19:22 10° ENE visible
28 May 5.0 23:09:43 10° NNW 23:16:51 50° NE 23:22:57 10° ESE visible
29 May 4.7 01:10:32 10° NW 01:16:33 33° WSW 01:21:59 10° S visible
29 May 6.7 20:26:15 10° NW 20:31:34 18° N 20:36:16 10° NE visible
29 May 5.6 22:27:40 10° NNW 22:34:30 36° NE 22:40:20 10° ESE visible
30 May 4.2 00:28:09 10° NW 00:34:53 53° WSW 00:40:01 14° S visible
30 May 6.8 19:43:14 10° NW 19:48:37 18° N 19:53:22 10° NE visible
30 May 6.1 21:45:35 10° NNW 21:51:58 28° NNE 21:57:29 10° E visible
30 May 4.0 23:45:57 10° NW 23:53:04 81° WSW 23:58:02 17° SSE visible
31 May 5.7 01:49:08 10° WNW 01:51:32 12° W 01:53:51 10° WSW visible
31 May 6.8 18:59:50 10° NW 19:05:38 18° N 19:10:43 10° NNE visible
31 May 6.4 21:03:24 10° NNW 21:09:18 23° NNE 21:14:26 10° ENE visible
31 May 4.4 23:03:51 10° NNW 23:11:03 70° NE 23:16:15 15° SE visible
01 Jun 5.3 01:05:20 10° WNW 01:10:08 21° WSW 01:12:47 16° SW visible
01 Jun 6.5 20:21:01 10° NNW 20:26:29 19° NNE 20:31:17 10° ENE visible
01 Jun 5.0 22:21:48 10° NNW 22:28:52 49° NE 22:34:38 11° ESE visible
02 Jun 4.7 00:22:35 10° NW 00:28:36 34° WSW 00:31:11 25° SSW visible
02 Jun 6.6 19:38:21 10° NW 19:43:34 18° N 19:48:11 10° NE visible
02 Jun 5.5 21:39:46 10° NNW 21:46:30 35° NE 21:52:17 10° ESE visible
02 Jun 4.2 23:40:12 10° NW 23:46:55 54° WSW 23:49:41 31° S visible
03 Jun 6.7 18:55:19 10° NW 19:00:37 17° N 19:05:17 10° NE visible
03 Jun 6.0 20:57:41 10° NNW 21:03:58 27° NNE 21:09:25 10° E visible
03 Jun 4.0 22:58:00 10° NW 23:05:04 82° WSW 23:08:17 31° SSE visible
04 Jun 5.7 01:01:03 10° WNW 01:03:36 12° W 01:04:50 12° WSW visible
04 Jun 6.3 20:15:30 10° NNW 20:21:18 22° NNE 20:26:21 10° ENE visible
04 Jun 4.3 22:15:55 10° NNW 22:23:03 68° NE 22:26:57 24° SE visible
